This demonstration page uses our WeatherBlox Daily Observations layout. Learn more.

Left ArrowRight Arrow

39.92423, -83.80882

Hourly Observations for February 14, 2019

Temp ( °F °C ) Dew Point ( °F °C ) Humidity (%) Winds ( mph kmh ) Pressure ( in mb ) Visibility ( mi km ) Precip ( " mm )
12:56 am 00:56 Clear 29 -1.7 24 -4.4 82 82 SW 7 11 30.06 1018 10 16.0934 N/A
1:56 am 01:56 Partly Cloudy 29 -1.7 24 -4.4 82 82 S 3 6 30.06 1018 10 16.0934 N/A
2:56 am 02:56 Clear 30 -1.1 25 -3.9 82 82 S 5 7 30.04 1017 10 16.0934 N/A
3:56 am 03:56 Clear 31 -0.6 26 -3.3 82 82 SSE 6 9 30.02 1017 10 16.0934 N/A
4:56 am 04:56 Clear 33 0.6 25 -3.9 72 72 S 6 9 30.01 1016 10 16.0934 N/A
5:56 am 05:56 Clear 35 1.7 26 -3.3 70 70 S 9 15 29.98 1015 10 16.0934 N/A
6:56 am 06:56 Clear 36 2.2 26 -3.3 67 67 S 9 15 29.96 1015 10 16.0934 N/A
7:56 am 07:56 Sunny 37 2.8 27 -2.8 67 67 S 10 17 29.96 1014 10 16.0934 N/A
8:56 am 08:56 Sunny 38 3.3 28 -2.2 68 68 S 9 15 29.93 1014 10 16.0934 N/A
9:56 am 09:56 Sunny 40 4.4 28 -2.2 63 63 S 14 22 29.91 1013 10 16.0934 N/A
10:56 am 10:56 Sunny 42 5.6 30 -1.1 62 62 S 13 20 29.88 1012 10 16.0934 N/A
11:56 am 11:56 Sunny 43 6.1 30 -1.1 60 60 S 10 17 29.85 1011 10 16.0934 N/A
12:56 pm 12:56 Sunny 44 6.7 30 -1.1 58 58 S 14 22 29.8 1009 10 16.0934 N/A
1:56 pm 13:56 Sunny 46 7.8 31 -0.6 56 56 S 10 17 29.75 1008 10 16.0934 N/A
2:56 pm 14:56 Sunny 47 8.3 30 -1.1 52 52 S 10 17 29.7 1006 10 16.0934 N/A
3:56 pm 15:56 Sunny 49 9.4 30 -1.1 48 48 S 10 17 29.69 1005 10 16.0934 N/A
4:56 pm 16:56 Sunny 48 8.9 31 -0.6 52 52 S 7 11 29.67 1005 10 16.0934 N/A
5:56 pm 17:56 Sunny 47 8.3 31 -0.6 54 54 S 7 11 29.65 1004 10 16.0934 N/A
6:56 pm 18:56 Clear 46 7.8 30 -1.1 54 54 S 6 9 29.65 1004 10 16.0934 N/A
7:56 pm 19:56 Clear 45 7.2 31 -0.6 58 58 S 6 9 29.65 1004 10 16.0934 N/A
8:56 pm 20:56 Cloudy 47 8.3 30 -1.1 52 52 SSW 8 13 29.64 1004 10 16.0934 N/A
9:56 pm 21:56 Cloudy 49 9.4 33 0.6 55 55 SW 15 24 29.63 1003 10 16.0934 N/A
10:56 pm 22:56 Cloudy 50 10 34 1.1 54 54 SW 20 31 29.61 1003 10 16.0934 N/A
11:56 pm 23:56 Cloudy 49 9.4 34 1.1 56 56 SW 18 30 29.62 1003 10 16.0934 N/A

Powered by AerisWeather